User: anonymous   Login
Location: ???????
(55.4362°N, 38.1183°E)
Time: 21:31:42
(UTC+00:00)
Language:

FENGYUN 1C DEB - Orbit

View from above orbital plane
View from above orbital plane
View from above satellite
View from above satellite

Ground track
Ground track

The orbit data is extracted from the following two-line orbital elements,

1 31286U 99025BNU 22022.06327995  .00002174  00000-0  13673-2 0  9990
2 31286 100.8868 320.9313 0103045  62.1506 299.0049 14.03190083439881
Epoch (UTC): 22 January 2022 01:31:07
Eccentricity: 0.0103045
inclination: 100.8868°
perigee height: 808 km
apogee height: 957 km
right ascension of ascending node: 320.9313°
argument of perigee: 62.1506°
revolutions per day: 14.03190083
mean anomaly at epoch: 299.0049°
orbit number at epoch: 43988

The dashed part of the orbit path shows where the satellite is in the earth's shadow,  

DLR